Погода в Советской

Россия / Ставропольский край     44°01′38″N   44°02′36″E
темп.,
°C
ветер,
м/с
пор.,
м/с
влажн.,
%
обл.,
%
осадки,
мм/ч
давл.,
гПа
погр.,
м
7 марта, вс
вс700:00+8сз3555100 0.0 1014115
03:00+4сз121772100 0.0 10181105
06:00+1ссз91370100 0.0 10231164
09:00+1ссз5759100 0.1 10251294
12:00+3ссз343192 0.0 10241436
15:00+4ссз232847 0.0 10231501
18:00+3св22370 0.0 102347
21:00+1вюв23480 0.0 102357
8 марта, пн
пн800:00−1вюв12520 0.0 102221
03:00−1всв12510 0.0 102221
06:00−1с115326 0.0 102121
09:00+2с214131 0.0 1020413
12:00+5всв223775 0.0 10181171
15:00+6в223538 0.0 10171636
18:00+5в1145100 0.0 101723
21:00+3с015599 0.0 101822
9 марта, вт
вт900:00+1ссз236297 0.0 101845
03:000ссз237092 0.0 101853
06:000з127294 0.0 101821
09:00+3ююз455991 0.0 1018283
12:00+7ю334411 0.0 10171125
15:00+8сз344028 0.0 10171773
18:00+5ссз586097 0.0 1019426
21:00+2с458697 0.1 1021437
10 марта, ср
ср1000:00+1ссз3584100 0.1 1021319
03:00+1юз2584100 0.1 1022451
06:000сз268698 0.0 1023374
09:00+2с237399 0.0 1023695
12:00+4с3345100 0.0 10211079
15:00+5св3342100 0.0 10201275
18:00+3всв3551100 0.0 1020311
21:00+1всв4854100 0.0 1021441
11 марта, чт
чт1100:00+1всв4855100 0.0 1019455
03:00−1св4696100 1.3 1019364
06:00−2всв5996100 2.3 1020602
09:00−1в61095100 4.8 1020737
12:00−1всв6996100 1.8 1021683
15:00−2всв71195100 3.9 1022736
18:00−4всв71195100 1.5 1024639
21:00−5в5995100 2.4 1027622